Lexington Weather

Lexington, Massachusetts, USA

54°F
12/10/2019 3:54pm 
  • Lexington Conditions: Light rain, Overcast
  • Temperature: 54.3°F / 12.4°CColder 0.9°F than last hour.
  • Dew Point: 52.7°FDecreased 0.2°Fsince last hour.
  • Relative Humidity: 94%Increased 2.0% since last hour.
  • Wind: Wind from SSW SSW 2 mph, 10-min avg: 4 mph, gust: 8 mph
  • Barometer: 29.68 inFalling 0.02  inHg/hr Falling Slowly
  • Visibility: 10 miles
  • Rain Today: 0.04 in
  •   

Regional Weather Roundup
for Boston / Norton, MA

        
000
ASUS41 KBOX 082200
RWRBOX

REGIONAL WEATHER ROUNDUP
NATIONAL WEATHER SERVICE BOSTON/NORTON MA
500 PM EST SUN DEC 08 2019

NOTE:  "FAIR" INDICATES FEW OR NO CLOUDS BELOW 12,000 FEET WITH NO 
SIGNIFICANT WEATHER AND/OR OBSTRUCTIONS TO VISIBILITY.

MAZALL-082300-
EASTERN MASSACHUSETTS
  
CITY           SKY/WX    TMP DP  RH WIND       PRES   REMARKS
BOSTON         CLOUDY    36  21  54 S12       30.45S WCI  28          
BEVERLY        FAIR      33  19  56 S7        30.43S WCI  27          
LAWRENCE       FAIR      31  11  43 VRB5      30.44S WCI  26          
BEDFORD        MOCLDY    32  12  43 S6        30.43R WCI  26          
BLUE HILL        N/A     30  21  69 S13       30.40S WCI  20          
NORWOOD        FAIR      34  20  56 S6        30.45R WCI  29          
MARSHFIELD     NOT AVBL                                               
PLYMOUTH       FAIR      34  25  69 VRB6      30.45F WCI  29          
TAUNTON        FAIR      31  24  75 CALM      30.46S                  
NEW BEDFORD    FAIR      36  26  67 S6        30.46S WCI  31          
$$

MAZALL-082300-
CAPE COD AND THE ISLANDS
  
CITY           SKY/WX    TMP DP  RH WIND       PRES   REMARKS
FALMOUTH       CLEAR     34  25  69 S9        30.47S WCI  26          
HYANNIS        NOT AVBL                                               
CHATHAM        FAIR      35  25  66 SW9G18    30.50S WCI  28          
PROVINCETOWN   FAIR      36  27  69 SW16      30.47S WCI  26          
NANTUCKET      FAIR      36  26  67 S13       30.50S WCI  27          
MARTHAS VNYRD  FAIR      38  27  64 S13       30.48S WCI  30          
$$
 
MAZALL-082300-
CENTRAL AND WESTERN MASSACHUSETTS
  
CITY           SKY/WX    TMP DP  RH WIND       PRES   REMARKS
WORCESTER      FAIR      28  12  51 SW12      30.38F WCI  18          
FITCHBURG      FAIR      30  10  43 SE7       30.41F WCI  23          
ORANGE         FAIR      30  12  47 S10       30.39F WCI  21          
SPRINGFIELD    MOCLDY    29  16  58 S10       30.40F WCI  19          
WESTFIELD      FAIR      29  17  61 S9        30.40S WCI  20          
NORTH ADAMS    FAIR      32  12  43 CALM      30.33F                  
PITTSFIELD     FAIR      30  14  51 SW9G20    30.31F WCI  22          
$$
 
RIZALL-082300-
RHODE ISLAND
  
CITY           SKY/WX    TMP DP  RH WIND       PRES   REMARKS
PROVIDENCE     MOCLDY    33  25  72 SW6       30.46S WCI  28          
NEWPORT        MOCLDY    40  27  59 SW9       30.45S                  
BLOCK ISLAND   MOCLDY    39  28  64 SW15G21   30.47S WCI  31          
SMITHFIELD     FAIR      31  24  75 S5        30.44R WCI  26          
WESTERLY       FAIR      39  27  62 SW7       30.47S                  
$$
 
CTZALL-082300-
CONNECTICUT
  
CITY           SKY/WX    TMP DP  RH WIND       PRES   REMARKS
BRADLEY INTL   MOCLDY    34  18  52 S8        30.43S WCI  27          
HARTFORD       FAIR      33  19  56 S7        30.45S WCI  27          
BRIDGEPORT     FAIR      38  26  62 S10       30.45S WCI  31          
DANBURY        FAIR      34  24  67 S3        30.41F                  
GROTON         NOT AVBL                                               
NEW HAVEN      FAIR      40  26  57 S9        30.45S                  
CHESTER        FAIR      32  21  64 S5        30.44S WCI  27          
MERIDEN        FAIR      29  21  72 CALM      30.44F                  
WILLIMANTIC    FAIR      31  14  49 CALM      30.45F                  
OXFORD         FAIR      30  23  75 S10       30.40F WCI  21          
$$

MEZ002-015-021-024-NHZ003-005-008-011-012-014-VTZ005-008-082300-
NORTHERN NEW ENGLAND
  
CITY           SKY/WX    TMP DP  RH WIND       PRES   REMARKS
PORTLAND ME    CLOUDY    34  10  37 S10       30.40S WCI  26          
BANGOR ME      CLOUDY    31  21  66 S7        30.35S WCI  24          
CONCORD NH     FAIR      30   9  41 S9        30.38F WCI  22          
MANCHESTER NH  CLOUDY    31   8  38 S10       30.38F WCI  22          
NASHUA NH      FAIR      31  12  45 SE6       30.41F WCI  25          
PORTSMOUTH NH  CLOUDY    29   7  39 S7        30.40S WCI  22          
JAFFREY NH     FAIR      26  32 100 S7        30.33F WCI  18          
KEENE NH       FAIR      26  14  60 S8        30.37F WCI  18          
BURLINGTON VT  MOCLDY    31  14  49 S20G26    30.17F WCI  19          
MT. WASHINGTON CLOUDY    14   3  62 SW53G75     N/A  WCI -12          
$$

NYZ052-076-082300-
EASTERN NEW YORK
  
CITY           SKY/WX    TMP DP  RH WIND       PRES   REMARKS
ALBANY         CLOUDY    34  18  52 S17G28    30.30F WCI  23          
NEW YORK CITY  MOCLDY    41  27  57 S15       30.42F                  
$$
 
ANZALL-082300-
MARINE OBSERVATIONS
  
STATION/POSITION TIME  TEMP    WIND        PRES    VSBY  WAVE
                       AIR SEA DIR/SP/G                  HT/PER
                 (UTC) (F)     (DEG/KT/KT) (MB)    (MI)  (FT/S)
BOSTON BUOY      2050   36 47  190/ 14/ 17 1030.5          2/ 3
BUZZARDS BAY     2100   40     200/ 19/ 21 1031.9S
NANTUCKET SOUND  2140      42              1032.5S
MASS BAY-STELLWA 2104   36 46  240/ 17/ 21 1029.1S  1 7/8  3/ 4
ISLE OF SHOALS   2100   35     210/ 20/ 23 1029.7F
S OF BLOCK IS    2130      52                N/A           2/ 3
$$

......................KEY.........................
  SKY/WX - SKY CONDITION/PRESENT WEATHER
  TMP    - TEMPERATURE IN FAHRENHEIT
  DWPT   - DEWPOINT IN FAHRENHEIT
  RH     - RELATIVE HUMIDITY IN PERCENT
  WIND   - DIRECTION AND SPEED IN MPH
  PRES   - MEAN SEA LEVEL PRESSURE IN INCHES OF HG
  WCI    - WIND CHILL INDEX
  VSB    - VISIBILITY IN MILES
  HX     - HEAT INDEX
  TC     - TEMPERATURE IN CELSIUS
  VRB    - VARIABLE WIND DIRECTION
  N/A    - NOT AVAILABLE
  
      

Other recent Regional Weather Roundups

Tue Dec 10, 3:10pm

Tue Dec 10, 3:01pm

Tue Dec 10, 2:10pm

Tue Dec 10, 2:01pm

Tue Dec 10, 1:10pm

Tue Dec 10, 1:00pm

Tue Dec 10, 12:10pm

Tue Dec 10, 12:00pm

Tue Dec 10, 11:10am

Tue Dec 10, 11:00am

Tue Dec 10, 10:10am

Tue Dec 10, 10:00am

Tue Dec 10, 9:10am

Tue Dec 10, 9:01am

Tue Dec 10, 8:10am

Tue Dec 10, 8:00am

Tue Dec 10, 7:10am

Tue Dec 10, 7:00am

Tue Dec 10, 6:10am

Tue Dec 10, 6:00am

Tue Dec 10, 5:10am

Tue Dec 10, 5:00am

Tue Dec 10, 4:10am

Tue Dec 10, 4:00am

Tue Dec 10, 3:10am

Tue Dec 10, 3:00am

Tue Dec 10, 2:10am

Tue Dec 10, 2:01am

Tue Dec 10, 1:10am

Tue Dec 10, 1:00am

Tue Dec 10, 12:10am

Tue Dec 10, 12:01am

Mon Dec 9, 11:10pm

Mon Dec 9, 11:01pm

Mon Dec 9, 10:10pm

Mon Dec 9, 10:00pm

Mon Dec 9, 9:10pm

Mon Dec 9, 9:01pm

Mon Dec 9, 8:10pm

Mon Dec 9, 8:01pm

Mon Dec 9, 7:10pm

Mon Dec 9, 7:00pm

Mon Dec 9, 6:10pm

Mon Dec 9, 6:00pm

Mon Dec 9, 5:10pm

Mon Dec 9, 5:01pm

Mon Dec 9, 4:10pm

Mon Dec 9, 4:01pm

Mon Dec 9, 3:10pm

Mon Dec 9, 3:01pm

Mon Dec 9, 2:10pm

Mon Dec 9, 2:00pm

Mon Dec 9, 1:10pm

Mon Dec 9, 1:00pm

Mon Dec 9, 12:10pm

Mon Dec 9, 12:00pm

Mon Dec 9, 11:10am

Mon Dec 9, 11:00am

Mon Dec 9, 10:10am

Mon Dec 9, 10:00am

Mon Dec 9, 9:10am

Mon Dec 9, 9:00am

Mon Dec 9, 8:10am

Mon Dec 9, 8:00am

Mon Dec 9, 7:10am

Mon Dec 9, 7:00am

Mon Dec 9, 6:10am

Mon Dec 9, 6:00am

Mon Dec 9, 5:10am

Mon Dec 9, 5:00am

Mon Dec 9, 4:10am

Mon Dec 9, 4:00am

Mon Dec 9, 3:10am

Mon Dec 9, 3:00am

Mon Dec 9, 2:10am

Mon Dec 9, 2:00am

Mon Dec 9, 1:10am

Mon Dec 9, 1:00am

Mon Dec 9, 12:10am

Mon Dec 9, 12:00am

Sun Dec 8, 11:10pm

Sun Dec 8, 11:00pm

Sun Dec 8, 10:10pm

Sun Dec 8, 10:01pm

Sun Dec 8, 9:10pm

Sun Dec 8, 9:01pm

Sun Dec 8, 8:10pm

Sun Dec 8, 8:00pm

Sun Dec 8, 7:10pm

Sun Dec 8, 7:00pm

Sun Dec 8, 6:10pm

Sun Dec 8, 6:01pm

Sun Dec 8, 5:10pm

Sun Dec 8, 4:10pm

Sun Dec 8, 4:01pm

Sun Dec 8, 3:10pm

Sun Dec 8, 3:01pm

Sun Dec 8, 2:10pm

Sun Dec 8, 2:01pm

Sun Dec 8, 1:10pm

Sun Dec 8, 1:00pm

Sun Dec 8, 12:10pm

Sun Dec 8, 12:01pm

Sun Dec 8, 11:10am

Sun Dec 8, 11:00am

Sun Dec 8, 10:10am

Sun Dec 8, 10:01am

Sun Dec 8, 9:10am

Sun Dec 8, 9:00am

Sun Dec 8, 8:10am

Sun Dec 8, 8:00am

Sun Dec 8, 7:10am

Sun Dec 8, 7:00am

Sun Dec 8, 6:10am

Sun Dec 8, 6:00am

Sun Dec 8, 5:10am

Sun Dec 8, 5:00am

Sun Dec 8, 4:10am

Sun Dec 8, 4:00am

Sun Dec 8, 3:10am

Sun Dec 8, 3:00am

Sun Dec 8, 2:10am

Sun Dec 8, 2:00am

Sun Dec 8, 1:10am

Sun Dec 8, 1:00am

Sun Dec 8, 12:10am

Sun Dec 8, 12:01am

Sat Dec 7, 11:10pm

Sat Dec 7, 11:00pm

Sat Dec 7, 10:10pm

Sat Dec 7, 10:00pm

Sat Dec 7, 9:10pm

Sat Dec 7, 9:00pm

Sat Dec 7, 8:10pm

Sat Dec 7, 8:00pm

Sat Dec 7, 7:10pm

Sat Dec 7, 7:00pm

Sat Dec 7, 6:10pm

Sat Dec 7, 6:00pm

Sat Dec 7, 5:10pm

Sat Dec 7, 5:00pm

Sat Dec 7, 4:10pm

Sat Dec 7, 4:00pm

Meta data:

ID: 5284e822-e60f-43b1-a86c-9665e1c40461
Link: https://api.weather.gov/products/5284e822-e60f-43b1-a86c-9665e1c40461